Charleston, WV

10:01 PM EDT on August 22, 2019 (GMT -0400)
Yeager Airport

Weather History for KCRW - June, 2019

Change the Weather History Date:

Tuesday, June 4, 2019

  Actual Average Record
Temperature  
Mean Temperature 65 °F 69 °F  
Max Temperature 80 °F 79 °F 102 °F (1925)
Min Temperature 49 °F 59 °F 41 °F (1956)
Degree Days  
Heating Degree Days 0 1  
Month to date heating degree days 2 4  
Since 1 June heating degree days 2 4  
Since 1 July heating degree days 4146 4469  
Cooling Degree Days 0 5  
Month to date cooling degree days 9 19  
Year to date cooling degree days 205 129  
Since 1 June cooling degree days 9 19  
Growing Degree Days 14 (Base 50)    
Moisture  
Dew Point 53 °F    
Average Humidity 70    
Maximum Humidity 100    
Minimum Humidity 40    
Precipitation  
Precipitation 0.00 in 0.15 in 1.99 in (2014)
Month to date precipitation T 0.63  
Year to date precipitation 22.23 18.77  
Sea Level Pressure  
Sea Level Pressure 30.08 in    
Wind  
Wind Speed 2 mph (South)    
Max Wind Speed 9 mph    
Max Gust Speed 13 mph    
Visibility 9 miles    
Events      
T = Trace of Precipitation, MM = Missing Value Source: NWS Daily Summary

Daily Weather History Graph

Daily Weather History Graph

Search for Another Location

Airport or City:

Astronomy

Jun. 04, 2019 Rise Set
Actual Time 6:03 AM EDT 8:46 PM EDT
Civil Twilight 5:32 AM EDT 9:17 PM EDT
Nautical Twilight 4:53 AM EDT 9:56 PM EDT
Astronomical Twilight 4:09 AM EDT 10:40 PM EDT
Moon 7:11 AM EDT (6/4) 10:13 PM EDT (6/4)
Length of Visible Light 15h 45m
Length of Day
14h 42m
New Moon, 2% of the Moon is Illuminated
Jun 4
New Moon
Jun 10
First Quarter
Jun 17
Full
Jun 25
Last Quarter
Jul 2
New

Hourly Weather History & Observations

Time (EDT) Temp. Dew Point Humidity Pressure Visibility Wind Dir Wind Speed Gust Speed Precip Events Conditions
12:54 AM 53.1 °F 51.1 °F 93% 30.13 in 9.0 mi Calm Calm - N/A   Clear
1:54 AM 52.0 °F 50.0 °F 93% 30.13 in 10.0 mi Calm Calm - N/A   Clear
2:54 AM 52.0 °F 50.0 °F 93% 30.13 in 6.0 mi Calm Calm - N/A   Partly Cloudy
3:54 AM 51.1 °F 48.9 °F 92% 30.14 in 6.0 mi Calm Calm - N/A   Partly Cloudy
4:54 AM 50.0 °F 48.0 °F 93% 30.15 in 9.0 mi Calm Calm - N/A   Partly Cloudy
5:54 AM 50.0 °F 48.9 °F 96% 30.16 in 6.0 mi Calm Calm - N/A   Scattered Clouds
6:54 AM 48.9 °F 48.0 °F 97% 30.17 in 6.0 mi Calm Calm - N/A   Scattered Clouds
7:54 AM 51.1 °F 50.0 °F 96% 30.18 in 6.0 mi Calm Calm - N/A   Scattered Clouds
8:54 AM 57.9 °F 52.0 °F 81% 30.18 in 10.0 mi Calm Calm - N/A   Scattered Clouds
9:54 AM 64.9 °F 55.0 °F 70% 30.17 in 10.0 mi Calm Calm - N/A   Clear
10:54 AM 70.0 °F 50.0 °F 49% 30.14 in 10.0 mi Variable 3.5 mph - N/A   Clear
11:54 AM 72.0 °F 48.0 °F 43% 30.14 in 10.0 mi SSE 5.8 mph - N/A   Clear
12:54 PM 73.9 °F 50.0 °F 43% 30.12 in 10.0 mi Variable 3.5 mph - N/A   Clear
1:54 PM 75.9 °F 50.0 °F 40% 30.10 in 10.0 mi Variable 6.9 mph - N/A   Clear
2:54 PM 77.0 °F 51.1 °F 40% 30.08 in 10.0 mi South 4.6 mph - N/A   Clear
3:54 PM 78.1 °F 53.1 °F 42% 30.05 in 10.0 mi Variable 3.5 mph - N/A   Clear
4:54 PM 79.0 °F 54.0 °F 42% 30.03 in 10.0 mi South 5.8 mph - N/A   Clear
5:54 PM 79.0 °F 55.9 °F 45% 30.01 in 10.0 mi SSW 4.6 mph - N/A   Clear
6:54 PM 78.1 °F 54.0 °F 43% 29.99 in 10.0 mi SSW 6.9 mph - N/A   Clear
7:54 PM 73.9 °F 61.0 °F 64% 29.98 in 10.0 mi Calm Calm - N/A   Clear
8:54 PM 69.1 °F 61.0 °F 75% 29.96 in 10.0 mi Calm Calm - N/A   Clear
9:54 PM 66.9 °F 60.1 °F 79% 29.97 in 10.0 mi South 3.5 mph - N/A   Clear
10:54 PM 64.9 °F 60.1 °F 84% 29.97 in 10.0 mi Calm Calm - N/A   Clear
11:54 PM 63.0 °F 60.1 °F 90% 29.96 in 10.0 mi Calm Calm - N/A   Clear